Location: Asheville, NC
(35.6000°N, 82.5500°W)
Time: 03:16:30
(UTC-04:00)

Vanguard 2 - Pass Details

Date: 11 February 2018
Orbit: 552 x 2940 km, 32.9° (Epoch: 22 May)

Event Time Altitude Azimuth Distance (km) Brightness Sun altitude
Rises 23:46:21 0° 269° (W) 2,888 - -64.5°
Reaches altitude 10° 23:48:45 10° 265° (W) 1,873 - -64.8°
Maximum altitude 23:52:42 54° 187° (S) 668 - -65.2°
Drops below altitude 10° 23:56:44 10° 110° (ESE) 1,922 - -65.6°
Sets 23:59:15 0° 105° (ESE) 2,973 - -65.9°
